Location: Kapla
(46.2483°N, 15.0094°E)
Time: 18:01:56
(UTC+00:00)

FALCON 9 DEB - Pass Details

Date: 03 March 2021
Orbit: 424 x 435 km, 53.0° (Epoch: 14 April)

Event Time Altitude Azimuth Distance (km) Brightness Sun altitude
Rises 18:21:04 0° 300° (WNW) 2,404 8.2 -16.7°
Reaches altitude 10° 18:23:11 10° 300° (WNW) 1,531 7.0 -17.0°
Maximum altitude 18:26:37 90° 212° (SSW) 433 3.0 -17.6°
Enters shadow 18:27:22 53° 122° (ESE) 536 3.2 -17.7°
